RYR50XY LFMU-EGGW

Flight info

Callsign RYR50XY
Flight time 1h 42m
Altitude 36000
Route FJR7R FJR DCT NG DCT MOLEN DCT MTL DCT ETREK DCT MADOT DCT MOPEM DCT CACHI DCT AVLON DCT OKRIX DCT BRY DCT CLM DCT KOPOR DCT PIREG DCT SOSUN DCT SUBIP UM733 UNDUG UNDUG1N
Aircraft B738/M-SDE2E3FGHIRWXY/LB1

Departure

Time 2026-04-25 09:07
Airport Béziers Vias airport (LFMU)

Arrival

Time 2026-04-25 10:49
Airport London Luton Airport (EGGW)
Time Latitude Longitude Altitude Speed Heading
2026-04-25 08:44 43.32144 3.35243 54 ft 0 kts 308°
2026-04-25 09:03 43.32146 3.35242 55 ft 1 kts 324°
2026-04-25 09:03 43.32153 3.35249 50 ft 3 kts 39°
2026-04-25 09:03 43.32174 3.35287 53 ft 7 kts 54°
2026-04-25 09:04 43.32240 3.35326 55 ft 14 kts
2026-04-25 09:04 43.32331 3.35364 52 ft 13 kts 58°
2026-04-25 09:04 43.32333 3.35492 54 ft 15 kts 94°
2026-04-25 09:04 43.32324 3.35680 49 ft 24 kts 94°
2026-04-25 09:05 43.32308 3.35944 49 ft 32 kts 94°
2026-04-25 09:05 43.32291 3.36267 51 ft 34 kts 95°
2026-04-25 09:05 43.32275 3.36555 50 ft 22 kts 94°
2026-04-25 09:05 43.32258 3.36654 50 ft 3 kts 97°
2026-04-25 09:06 43.32267 3.36658 50 ft 1 kts 354°
2026-04-25 09:06 43.32269 3.36642 46 ft 0 kts 275°
2026-04-25 09:06 43.32270 3.36632 48 ft 13 kts 275°
2026-04-25 09:06 43.32297 3.36124 50 ft 93 kts 274°
2026-04-25 09:07 43.32363 3.34929 92 ft 153 kts 274°
2026-04-25 09:07 43.32444 3.33427 794 ft 160 kts 277°
2026-04-25 09:07 43.32978 3.32112 1563 ft 169 kts 325°
2026-04-25 09:07 43.34172 3.31601 2074 ft 192 kts 353°
2026-04-25 09:08 43.35572 3.31648 2585 ft 214 kts 13°
2026-04-25 09:08 43.36883 3.32731 3043 ft 235 kts 48°
2026-04-25 09:08 43.37613 3.34824 3439 ft 260 kts 82°
2026-04-25 09:08 43.37589 3.37403 4276 ft 267 kts 91°
2026-04-25 09:09 43.37508 3.39920 5300 ft 267 kts 85°
2026-04-25 09:09 43.37986 3.42367 6216 ft 267 kts 63°
2026-04-25 09:09 43.38813 3.44680 7098 ft 272 kts 62°
2026-04-25 09:09 43.39673 3.47023 7905 ft 277 kts 61°
2026-04-25 09:10 43.40550 3.49409 8728 ft 282 kts 61°
2026-04-25 09:10 43.41442 3.51846 9546 ft 287 kts 61°
2026-04-25 09:10 43.42346 3.54325 10320 ft 293 kts 61°
2026-04-25 09:10 43.43287 3.56916 10670 ft 316 kts 61°
2026-04-25 09:11 43.45368 3.62672 11530 ft 347 kts 61°
2026-04-25 09:11 43.46443 3.65667 12306 ft 351 kts 61°
2026-04-25 09:11 43.47528 3.68695 13067 ft 355 kts 61°
2026-04-25 09:12 43.48628 3.71766 13814 ft 360 kts 61°
2026-04-25 09:12 43.49741 3.74877 14527 ft 364 kts 61°
2026-04-25 09:12 43.50861 3.78010 15265 ft 365 kts 61°
2026-04-25 09:12 43.51986 3.81160 16008 ft 368 kts 61°
2026-04-25 09:13 43.53118 3.84334 16685 ft 371 kts 62°
2026-04-25 09:13 43.54262 3.87543 17383 ft 374 kts 62°
2026-04-25 09:13 43.55413 3.90775 18079 ft 377 kts 62°
2026-04-25 09:13 43.56571 3.94033 18718 ft 380 kts 62°
2026-04-25 09:14 43.57773 3.97302 19271 ft 384 kts 57°
2026-04-25 09:14 43.59387 4.00234 19801 ft 386 kts 47°
2026-04-25 09:14 43.61197 4.02991 20352 ft 389 kts 45°
2026-04-25 09:14 43.63050 4.05744 20896 ft 393 kts 45°
2026-04-25 09:15 43.64916 4.08525 21431 ft 397 kts 46°
2026-04-25 09:15 43.66794 4.11356 21956 ft 401 kts 46°
2026-04-25 09:15 43.68676 4.14226 22470 ft 405 kts 46°
2026-04-25 09:15 43.70570 4.17137 22983 ft 409 kts 46°
2026-04-25 09:16 43.72477 4.20080 23492 ft 413 kts 47°
2026-04-25 09:16 43.74400 4.23055 23940 ft 417 kts 46°
2026-04-25 09:16 43.76338 4.26058 24376 ft 420 kts 47°
2026-04-25 09:16 43.78285 4.29077 24812 ft 422 kts 47°
2026-04-25 09:17 43.82217 4.35179 25654 ft 427 kts 47°
2026-04-25 09:17 43.84263 4.38173 26054 ft 429 kts 40°
2026-04-25 09:17 43.86624 4.40693 26464 ft 430 kts 31°
2026-04-25 09:18 43.89251 4.42674 26845 ft 430 kts 21°
2026-04-25 09:18 43.92004 4.44174 27227 ft 432 kts 19°
2026-04-25 09:18 43.94831 4.45626 27595 ft 435 kts 19°
2026-04-25 09:18 43.97678 4.47094 27967 ft 438 kts 19°
2026-04-25 09:19 44.00531 4.48603 28333 ft 440 kts 19°
2026-04-25 09:19 44.03397 4.50148 28706 ft 443 kts 20°
2026-04-25 09:19 44.06278 4.51712 29073 ft 445 kts 20°
2026-04-25 09:19 44.09176 4.53265 29414 ft 448 kts 19°
2026-04-25 09:20 44.12095 4.54812 29749 ft 450 kts 19°
2026-04-25 09:20 44.15029 4.56361 30079 ft 453 kts 19°
2026-04-25 09:20 44.17977 4.57920 30422 ft 453 kts 19°
2026-04-25 09:20 44.20920 4.59481 30839 ft 452 kts 19°
2026-04-25 09:21 44.23848 4.61039 31262 ft 450 kts 19°
2026-04-25 09:21 44.26770 4.62595 31628 ft 449 kts 19°
2026-04-25 09:21 44.29693 4.64154 31956 ft 450 kts 19°
2026-04-25 09:21 44.32614 4.65715 32307 ft 450 kts 19°
2026-04-25 09:22 44.35534 4.67277 32675 ft 449 kts 20°
2026-04-25 09:22 44.38447 4.68836 33034 ft 448 kts 20°
2026-04-25 09:22 44.41357 4.70396 33371 ft 448 kts 20°
2026-04-25 09:22 44.44265 4.71956 33712 ft 448 kts 20°
2026-04-25 09:23 44.47170 4.73516 34055 ft 447 kts 20°
2026-04-25 09:23 44.50073 4.75076 34337 ft 447 kts 19°
2026-04-25 09:23 44.53008 4.76475 34624 ft 445 kts 12°
2026-04-25 09:23 44.56045 4.77188 34930 ft 442 kts
2026-04-25 09:24 44.59101 4.77271 35240 ft 438 kts 354°
2026-04-25 09:24 44.62118 4.76728 35527 ft 436 kts 349°
2026-04-25 09:24 44.65111 4.76040 35779 ft 436 kts 348°
2026-04-25 09:24 44.68104 4.75324 36030 ft 435 kts 348°
2026-04-25 09:25 44.71095 4.74613 36119 ft 438 kts 348°
2026-04-25 09:25 44.77128 4.73225 36128 ft 439 kts 349°
2026-04-25 09:26 44.83111 4.71888 36131 ft 433 kts 349°
2026-04-25 09:26 44.89054 4.70567 36136 ft 432 kts 349°
2026-04-25 09:27 44.94993 4.69243 36122 ft 432 kts 349°
2026-04-25 09:27 45.00926 4.67916 36129 ft 432 kts 349°
2026-04-25 09:28 45.06859 4.66586 36131 ft 432 kts 349°
2026-04-25 09:28 45.12802 4.65251 36124 ft 433 kts 349°
2026-04-25 09:29 45.18748 4.63913 36126 ft 433 kts 349°
2026-04-25 09:29 45.23702 4.62786 36132 ft 434 kts 349°
2026-04-25 09:30 45.30634 4.61195 36135 ft 435 kts 349°
2026-04-25 09:30 45.35640 4.60044 36139 ft 435 kts 349°
2026-04-25 09:31 45.42587 4.58445 36138 ft 435 kts 349°
2026-04-25 09:31 45.47597 4.57290 36141 ft 435 kts 349°
2026-04-25 09:32 45.53571 4.55911 36141 ft 435 kts 349°
2026-04-25 09:32 45.59542 4.54528 36148 ft 434 kts 348°
2026-04-25 09:33 45.65505 4.53144 36145 ft 434 kts 349°
2026-04-25 09:33 45.71418 4.51769 36138 ft 433 kts 348°
2026-04-25 09:34 45.77368 4.50385 36137 ft 433 kts 348°
2026-04-25 09:34 45.83307 4.49003 36131 ft 432 kts 348°
2026-04-25 09:35 45.89233 4.47620 36125 ft 432 kts 348°
2026-04-25 09:35 45.95160 4.46233 36136 ft 431 kts 348°
2026-04-25 09:36 46.01077 4.44846 36131 ft 431 kts 348°
2026-04-25 09:36 46.06996 4.43456 36125 ft 431 kts 348°
2026-04-25 09:37 46.12903 4.42064 36128 ft 430 kts 348°
2026-04-25 09:37 46.18815 4.40669 36128 ft 430 kts 348°
2026-04-25 09:38 46.24722 4.39272 36128 ft 430 kts 348°
2026-04-25 09:38 46.30610 4.37753 36127 ft 429 kts 345°
2026-04-25 09:39 46.36412 4.35734 36135 ft 429 kts 343°
2026-04-25 09:39 46.42194 4.33626 36131 ft 429 kts 344°
2026-04-25 09:40 46.50888 4.30529 36132 ft 429 kts 344°
2026-04-25 09:40 46.56692 4.28486 36134 ft 429 kts 344°
2026-04-25 09:41 46.62502 4.26438 36118 ft 430 kts 344°
2026-04-25 09:41 46.68309 4.24387 36135 ft 430 kts 344°
2026-04-25 09:42 46.74124 4.22327 36129 ft 430 kts 344°
2026-04-25 09:42 46.79938 4.20263 36111 ft 430 kts 344°
2026-04-25 09:43 46.85756 4.18192 36132 ft 430 kts 344°
2026-04-25 09:43 46.91570 4.16119 36136 ft 430 kts 344°
2026-04-25 09:44 46.97384 4.14041 36135 ft 430 kts 344°
2026-04-25 09:44 47.03194 4.11960 36134 ft 430 kts 344°
2026-04-25 09:45 47.08934 4.09567 36127 ft 428 kts 337°
2026-04-25 09:45 47.14443 4.06285 36135 ft 427 kts 335°
2026-04-25 09:46 47.19881 4.02946 36134 ft 426 kts 335°
2026-04-25 09:46 47.25372 3.99638 36136 ft 426 kts 336°
2026-04-25 09:47 47.30871 3.96358 36131 ft 426 kts 336°
2026-04-25 09:47 47.36362 3.93084 36134 ft 426 kts 336°
2026-04-25 09:48 47.41855 3.89799 36130 ft 426 kts 336°
2026-04-25 09:48 47.47345 3.86507 36141 ft 426 kts 336°
2026-04-25 09:49 47.52833 3.83209 36140 ft 426 kts 336°
2026-04-25 09:49 47.58329 3.79903 36132 ft 426 kts 336°
2026-04-25 09:50 47.63828 3.76608 36144 ft 426 kts 336°
2026-04-25 09:50 47.69321 3.73310 36138 ft 426 kts 336°
2026-04-25 09:51 47.74816 3.70001 36139 ft 426 kts 336°
2026-04-25 09:51 47.80306 3.66685 36141 ft 426 kts 336°
2026-04-25 09:52 47.85803 3.63359 36150 ft 426 kts 336°
2026-04-25 09:52 47.91292 3.60029 36149 ft 426 kts 336°
2026-04-25 09:53 47.96731 3.56722 36153 ft 426 kts 335°
2026-04-25 09:53 48.02225 3.53356 36148 ft 426 kts 335°
2026-04-25 09:54 48.07698 3.49984 36148 ft 425 kts 335°
2026-04-25 09:54 48.13165 3.46609 36160 ft 425 kts 335°
2026-04-25 09:55 48.18632 3.43228 36155 ft 425 kts 335°
2026-04-25 09:55 48.24099 3.39840 36162 ft 425 kts 335°
2026-04-25 09:56 48.29566 3.36443 36164 ft 425 kts 335°
2026-04-25 09:56 48.35025 3.33044 36169 ft 425 kts 335°
2026-04-25 09:57 48.40486 3.29637 36165 ft 425 kts 335°
2026-04-25 09:57 48.45938 3.26186 36164 ft 425 kts 335°
2026-04-25 09:58 48.51381 3.22707 36164 ft 425 kts 335°
2026-04-25 09:58 48.56819 3.19225 36164 ft 424 kts 335°
2026-04-25 09:59 48.62252 3.15743 36175 ft 424 kts 335°
2026-04-25 09:59 48.67689 3.12252 36168 ft 424 kts 335°
2026-04-25 10:00 48.73122 3.08754 36174 ft 424 kts 335°
2026-04-25 10:00 48.78554 3.05248 36176 ft 424 kts 335°
2026-04-25 10:01 48.83984 3.01731 36167 ft 424 kts 333°
2026-04-25 10:01 48.89153 2.97489 36176 ft 422 kts 328°
2026-04-25 10:02 48.94225 2.92971 36180 ft 422 kts 327°
2026-04-25 10:02 48.99297 2.88464 36180 ft 423 kts 328°
2026-04-25 10:03 49.04381 2.83976 36178 ft 422 kts 328°
2026-04-25 10:03 49.09470 2.79488 36178 ft 422 kts 328°
2026-04-25 10:04 49.14550 2.74999 36185 ft 422 kts 328°
2026-04-25 10:04 49.19625 2.70504 36179 ft 422 kts 328°
2026-04-25 10:05 49.24701 2.65996 36177 ft 422 kts 328°
2026-04-25 10:05 49.29777 2.61477 36180 ft 422 kts 328°
2026-04-25 10:06 49.34852 2.56948 36177 ft 422 kts 327°
2026-04-25 10:06 49.39928 2.52406 36192 ft 423 kts 327°
2026-04-25 10:07 49.44978 2.47877 36184 ft 424 kts 327°
2026-04-25 10:07 49.50067 2.43301 36191 ft 424 kts 327°
2026-04-25 10:08 49.54708 2.37774 36195 ft 421 kts 316°
2026-04-25 10:08 49.59044 2.31676 36184 ft 422 kts 315°
2026-04-25 10:09 49.63392 2.25576 36190 ft 423 kts 316°
2026-04-25 10:09 49.67761 2.19498 36193 ft 423 kts 316°
2026-04-25 10:10 49.72141 2.13413 36189 ft 424 kts 316°
2026-04-25 10:10 49.76522 2.07311 36195 ft 424 kts 316°
2026-04-25 10:11 49.80896 2.01200 36192 ft 424 kts 316°
2026-04-25 10:11 49.85271 1.95073 36203 ft 424 kts 315°
2026-04-25 10:12 49.88897 1.87974 36202 ft 419 kts 297°
2026-04-25 10:13 49.92285 1.75519 36198 ft 418 kts 290°
2026-04-25 10:13 49.94456 1.67156 36199 ft 418 kts 291°
2026-04-25 10:14 49.96660 1.58802 36198 ft 418 kts 291°
2026-04-25 10:14 49.99512 1.50935 36202 ft 421 kts 306°
2026-04-25 10:15 50.03683 1.44518 36211 ft 423 kts 317°
2026-04-25 10:15 50.08160 1.38553 36209 ft 423 kts 317°
2026-04-25 10:16 50.12571 1.32635 36197 ft 414 kts 316°
2026-04-25 10:16 50.16170 1.27740 36206 ft 413 kts 316°
2026-04-25 10:16 50.18332 1.24781 35915 ft 415 kts 316°
2026-04-25 10:17 50.20484 1.21831 35643 ft 408 kts 316°
2026-04-25 10:17 50.22611 1.18911 35236 ft 405 kts 316°
2026-04-25 10:17 50.24715 1.16018 34878 ft 402 kts 316°
2026-04-25 10:17 50.26804 1.13142 34499 ft 399 kts 315°
2026-04-25 10:18 50.28876 1.10286 34126 ft 396 kts 315°
2026-04-25 10:18 50.30935 1.07446 33698 ft 393 kts 315°
2026-04-25 10:18 50.32977 1.04624 33309 ft 390 kts 315°
2026-04-25 10:18 50.35005 1.01820 32930 ft 387 kts 315°
2026-04-25 10:19 50.37013 0.99040 32566 ft 384 kts 315°
2026-04-25 10:19 50.39005 0.96277 32196 ft 381 kts 315°
2026-04-25 10:19 50.40982 0.93535 31839 ft 378 kts 315°
2026-04-25 10:19 50.42942 0.90811 31486 ft 375 kts 315°
2026-04-25 10:20 50.44891 0.88105 31132 ft 373 kts 315°
2026-04-25 10:20 50.46851 0.85465 30790 ft 371 kts 316°
2026-04-25 10:20 50.48818 0.82863 30451 ft 369 kts 316°
2026-04-25 10:20 50.50773 0.80275 30077 ft 366 kts 316°
2026-04-25 10:21 50.52710 0.77699 29679 ft 363 kts 316°
2026-04-25 10:21 50.54628 0.75138 29328 ft 359 kts 316°
2026-04-25 10:21 50.56523 0.72611 28956 ft 356 kts 316°
2026-04-25 10:21 50.58409 0.70101 28616 ft 353 kts 316°
2026-04-25 10:22 50.60275 0.67615 28244 ft 350 kts 316°
2026-04-25 10:22 50.62127 0.65145 27896 ft 348 kts 316°
2026-04-25 10:22 50.63966 0.62690 27542 ft 345 kts 316°
2026-04-25 10:22 50.65766 0.60283 27198 ft 343 kts 316°
2026-04-25 10:23 50.67600 0.57828 26859 ft 340 kts 316°
2026-04-25 10:23 50.69397 0.55419 26508 ft 338 kts 316°
2026-04-25 10:23 50.71183 0.53021 26181 ft 336 kts 316°
2026-04-25 10:23 50.72935 0.50667 25857 ft 334 kts 316°
2026-04-25 10:24 50.74701 0.48295 25516 ft 333 kts 316°
2026-04-25 10:24 50.76457 0.45931 25183 ft 331 kts 316°
2026-04-25 10:24 50.78206 0.43576 24852 ft 330 kts 316°
2026-04-25 10:24 50.79949 0.41225 24520 ft 329 kts 316°
2026-04-25 10:25 50.81686 0.38877 24179 ft 328 kts 316°
2026-04-25 10:25 50.83416 0.36535 23841 ft 328 kts 316°
2026-04-25 10:25 50.85147 0.34190 23446 ft 327 kts 316°
2026-04-25 10:25 50.86871 0.31852 23096 ft 325 kts 316°
2026-04-25 10:26 50.88584 0.29525 22754 ft 324 kts 316°
2026-04-25 10:26 50.90288 0.27211 22416 ft 322 kts 316°
2026-04-25 10:26 50.91979 0.24910 22084 ft 320 kts 317°
2026-04-25 10:26 50.93663 0.22617 21769 ft 318 kts 317°
2026-04-25 10:27 50.95336 0.20335 21448 ft 316 kts 317°
2026-04-25 10:27 50.97000 0.18067 21126 ft 315 kts 317°
2026-04-25 10:27 50.98657 0.15804 20807 ft 314 kts 317°
2026-04-25 10:27 51.00307 0.13548 20484 ft 312 kts 317°
2026-04-25 10:28 51.01955 0.11316 20199 ft 310 kts 319°
2026-04-25 10:28 51.03678 0.09275 20058 ft 308 kts 323°
2026-04-25 10:28 51.05467 0.07314 19954 ft 319 kts 323°
2026-04-25 10:28 51.07335 0.05296 19814 ft 329 kts 324°
2026-04-25 10:29 51.09235 0.03238 19656 ft 332 kts 323°
2026-04-25 10:29 51.11139 0.01160 19505 ft 332 kts 323°
2026-04-25 10:29 51.13043 -0.00929 19338 ft 332 kts 323°
2026-04-25 10:29 51.14940 -0.03019 19186 ft 331 kts 323°
2026-04-25 10:30 51.16831 -0.05112 19044 ft 330 kts 323°
2026-04-25 10:30 51.18712 -0.07200 18895 ft 329 kts 323°
2026-04-25 10:30 51.20589 -0.09288 18757 ft 328 kts 323°
2026-04-25 10:30 51.22457 -0.11368 18610 ft 328 kts 323°
2026-04-25 10:31 51.24326 -0.13451 18440 ft 327 kts 323°
2026-04-25 10:31 51.26185 -0.15526 18286 ft 325 kts 323°
2026-04-25 10:31 51.28037 -0.17596 18132 ft 325 kts 323°
2026-04-25 10:31 51.29882 -0.19660 17979 ft 324 kts 323°
2026-04-25 10:32 51.31724 -0.21723 17830 ft 322 kts 323°
2026-04-25 10:32 51.33532 -0.23751 17687 ft 321 kts 323°
2026-04-25 10:32 51.35359 -0.25801 17548 ft 321 kts 323°
2026-04-25 10:32 51.37181 -0.27845 17392 ft 320 kts 323°
2026-04-25 10:33 51.38998 -0.29888 17263 ft 319 kts 323°
2026-04-25 10:33 51.40812 -0.31926 17111 ft 318 kts 324°
2026-04-25 10:33 51.42818 -0.33400 16940 ft 320 kts 348°
2026-04-25 10:33 51.45028 -0.33447 16834 ft 320 kts 11°
2026-04-25 10:34 51.47115 -0.32247 16718 ft 319 kts 24°
2026-04-25 10:34 51.49125 -0.30716 16558 ft 320 kts 26°
2026-04-25 10:34 51.51125 -0.29137 16405 ft 321 kts 26°
2026-04-25 10:34 51.53131 -0.27554 16266 ft 321 kts 26°
2026-04-25 10:35 51.55140 -0.25983 16116 ft 322 kts 26°
2026-04-25 10:35 51.57152 -0.24423 15961 ft 321 kts 26°
2026-04-25 10:35 51.59166 -0.22867 15795 ft 321 kts 25°
2026-04-25 10:35 51.61174 -0.21320 15655 ft 319 kts 26°
2026-04-25 10:36 51.63174 -0.19782 15517 ft 317 kts 26°
2026-04-25 10:36 51.65149 -0.18263 15366 ft 313 kts 26°
2026-04-25 10:36 51.67106 -0.16756 15051 ft 311 kts 26°
2026-04-25 10:36 51.69060 -0.15247 14762 ft 309 kts 26°
2026-04-25 10:37 51.70984 -0.13762 14377 ft 306 kts 26°
2026-04-25 10:37 51.72884 -0.12293 13896 ft 306 kts 26°
2026-04-25 10:37 51.74770 -0.10780 13477 ft 301 kts 32°
2026-04-25 10:37 51.76349 -0.08612 12975 ft 297 kts 46°
2026-04-25 10:38 51.77765 -0.06209 12514 ft 294 kts 47°
2026-04-25 10:38 51.79155 -0.03807 12047 ft 292 kts 47°
2026-04-25 10:38 51.80538 -0.01429 11632 ft 289 kts 47°
2026-04-25 10:38 51.81912 0.00918 11225 ft 286 kts 47°
2026-04-25 10:39 51.83274 0.03234 10797 ft 283 kts 46°
2026-04-25 10:39 51.84628 0.05528 10384 ft 280 kts 46°
2026-04-25 10:39 51.85968 0.07795 9967 ft 277 kts 46°
2026-04-25 10:39 51.87303 0.10047 9472 ft 277 kts 46°
2026-04-25 10:40 51.88631 0.12292 9024 ft 274 kts 46°
2026-04-25 10:40 51.89947 0.14517 8576 ft 273 kts 46°
2026-04-25 10:40 51.91255 0.16726 8131 ft 271 kts 46°
2026-04-25 10:40 51.92687 0.18693 7659 ft 271 kts 29°
2026-04-25 10:41 51.94390 0.19949 7265 ft 268 kts 24°
2026-04-25 10:41 51.96118 0.21070 6817 ft 268 kts 22°
2026-04-25 10:41 51.97845 0.22168 6460 ft 266 kts 22°
2026-04-25 10:41 51.99558 0.23254 6093 ft 262 kts 21°
2026-04-25 10:42 52.01350 0.23753 5594 ft 266 kts 354°
2026-04-25 10:42 52.03067 0.22804 5196 ft 263 kts 327°
2026-04-25 10:42 52.04314 0.20638 4694 ft 267 kts 297°
2026-04-25 10:42 52.04771 0.17748 4355 ft 265 kts 269°
2026-04-25 10:43 52.04339 0.14875 3959 ft 267 kts 242°
2026-04-25 10:43 52.03260 0.12435 3839 ft 265 kts 229°
2026-04-25 10:43 52.02049 0.10181 3649 ft 265 kts 228°
2026-04-25 10:43 52.00833 0.07942 3510 ft 263 kts 227°
2026-04-25 10:44 51.99633 0.05741 3343 ft 258 kts 227°
2026-04-25 10:44 51.98445 0.03544 3090 ft 261 kts 229°
2026-04-25 10:44 51.97276 0.01344 3049 ft 256 kts 228°
2026-04-25 10:44 51.96129 -0.00813 2983 ft 249 kts 228°
2026-04-25 10:45 51.95018 -0.02899 2995 ft 241 kts 227°
2026-04-25 10:45 51.93937 -0.04909 3019 ft 232 kts 228°
2026-04-25 10:45 51.92911 -0.06883 2993 ft 225 kts 234°
2026-04-25 10:45 51.92324 -0.09132 3099 ft 208 kts 253°
2026-04-25 10:46 51.91931 -0.11348 3089 ft 201 kts 252°
2026-04-25 10:46 51.91505 -0.13487 3011 ft 197 kts 253°
2026-04-25 10:46 51.91143 -0.15591 2945 ft 193 kts 254°
2026-04-25 10:46 51.90786 -0.17678 2769 ft 197 kts 253°
2026-04-25 10:47 51.90384 -0.19863 2489 ft 199 kts 252°
2026-04-25 10:47 51.90020 -0.22034 2173 ft 199 kts 255°
2026-04-25 10:47 51.89665 -0.24139 1905 ft 194 kts 253°
2026-04-25 10:47 51.89294 -0.26203 1639 ft 187 kts 252°
2026-04-25 10:48 51.88965 -0.28153 1470 ft 171 kts 255°
2026-04-25 10:48 51.88663 -0.29946 1236 ft 159 kts 252°
2026-04-25 10:48 51.88364 -0.31629 1025 ft 151 kts 254°
2026-04-25 10:48 51.88079 -0.33282 837 ft 153 kts 252°
2026-04-25 10:49 51.87792 -0.34938 633 ft 151 kts 253°
2026-04-25 10:49 51.87604 -0.36029 523 ft 142 kts 253°
2026-04-25 10:49 51.87345 -0.37526 521 ft 38 kts 255°
2026-04-25 10:49 51.87350 -0.37691 521 ft 9 kts 320°
2026-04-25 10:50 51.87405 -0.37676 521 ft 9 kts 40°
2026-04-25 10:50 51.87446 -0.37607 521 ft 8 kts 46°
2026-04-25 10:50 51.87486 -0.37540 521 ft 8 kts 46°
2026-04-25 10:50 51.87528 -0.37481 521 ft 8 kts 31°
2026-04-25 10:51 51.87590 -0.37450 521 ft 11 kts
2026-04-25 10:51 51.87669 -0.37499 521 ft 14 kts 320°
2026-04-25 10:51 51.87722 -0.37636 521 ft 14 kts 295°
2026-04-25 10:51 51.87763 -0.37779 521 ft 14 kts 295°
2026-04-25 10:52 51.87804 -0.37913 522 ft 13 kts 302°
2026-04-25 10:52 51.87872 -0.38003 522 ft 13 kts 341°
2026-04-25 10:52 51.87958 -0.38000 522 ft 12 kts 18°
2026-04-25 10:52 51.88028 -0.37922 521 ft 12 kts 38°
2026-04-25 10:53 51.88073 -0.37836 521 ft 8 kts 86°
2026-04-25 10:53 51.88055 -0.37786 521 ft 0 kts 126°